Flag for U.S.A. Weather past 2 weeks in Sidney, Montana, U.S.A.

Now
37 °F

Sunny.


Feels Like: 37 °F
Forecast: 36 / 71 °F
Wind: No wind

Location: Sidney-Richland

Current Time: Sep 16, 2014 at 7:56:22 AM

Latest Report: Sep 16, 2014 at 7:35 AM


Visibility: 10 mi

Pressure: 30.03 "Hg

Humidity: 93%

Dew point: 36 °F

Location of SidneyLocation

Historic Weather in Sidney — Graph

°F

Sidney temperature yesterday

Maximum temperature yesterday: 68 °F (at 3:15 PM)
Minimum temperature yesterday: 30 °F (at 3:15 AM)
Average temperature yesterday: 47 °F

Past Weeks' High & Low Weather Summary

 TemperatureHumidityPressure
High82 °F (Sep 7, 2:35 PM)100% (Sep 1, 6:35 AM)30.54 "Hg (Sep 1, 6:35 AM)
Low27 °F (Sep 12, 3:55 AM)24% (Sep 6, 2:35 PM)29.57 "Hg (Sep 3, 6:15 PM)
Average51 °F70%30.07 "Hg
* Reported Sep 1 6:35 AM — Sep 16 6:35 AM, Sidney, Weather by CustomWeather, © 2014

Note: Actual official high and low records may vary slightly from our data, if they occured in-between our weather recording intervals... More about our weather records

Advertising

Sidney weather history for previous 24 hours

 ConditionsComfort  
Time TempWeatherWind HumidityBarometerVisibility
6:35 AM
Sep 16
34 °FClear.No wind87%30.04 "Hg10 mi
5:35 AM36 °FClear.No wind81%30.03 "Hg10 mi
5:15 AM36 °FClear.No wind81%30.03 "Hg10 mi
4:55 AM34 °FClear.No wind93%30.04 "Hg10 mi
4:35 AM37 °FClear.No wind75%30.03 "Hg10 mi
4:15 AM36 °FClear.No wind87%30.04 "Hg10 mi
3:55 AM34 °FClear.No wind87%30.04 "Hg10 mi
3:35 AM36 °FClear.No wind87%30.05 "Hg10 mi
3:15 AM36 °FClear.No wind87%30.05 "Hg10 mi
2:55 AM37 °FClear.No wind87%30.05 "Hg10 mi
2:35 AM37 °FClear.No wind87%30.05 "Hg10 mi
2:15 AM37 °FClear.No wind81%30.05 "Hg10 mi
1:55 AM37 °FClear.No wind87%30.06 "Hg10 mi
1:35 AM37 °FClear.No wind81%30.06 "Hg10 mi
1:15 AM37 °FClear.No wind87%30.06 "Hg10 mi
12:55 AM39 °FClear.No wind81%30.06 "Hg10 mi
12:35 AM37 °FClear.No wind87%30.06 "Hg10 mi
11:55 PM
Sep 15
41 °FClear.No wind76%30.06 "Hg10 mi
11:35 PM41 °FClear.No wind76%30.06 "Hg10 mi
11:15 PM39 °FClear.No wind81%30.07 "Hg10 mi
10:55 PM43 °FClear.No wind76%30.07 "Hg10 mi
10:35 PM43 °FClear.No wind71%30.07 "Hg10 mi
10:15 PM43 °FClear.No wind76%30.08 "Hg10 mi
9:55 PM45 °FClear.No wind71%30.08 "Hg10 mi
9:35 PM46 °FClear.No wind66%30.08 "Hg10 mi
9:15 PM45 °FClear.No wind71%30.08 "Hg10 mi
8:55 PM48 °FClear.No wind62%30.08 "Hg10 mi
8:35 PM46 °FClear.No wind66%30.08 "Hg10 mi
8:15 PM48 °FClear.No wind62%30.08 "Hg10 mi
7:55 PM52 °FSunny.No wind54%30.08 "Hg10 mi
7:15 PM59 °FSunny.No wind42%30.07 "Hg10 mi
6:55 PM61 °FSunny.3 mph42%30.08 "Hg3 mi
6:35 PMN/ASunny.3 mphN/A30.08 "Hg10 mi
6:15 PM64 °FSunny.3 mph34%30.09 "Hg10 mi
5:55 PM66 °FSunny.6 mph30%30.09 "Hg10 mi
5:35 PM66 °FSunny.6 mph30%30.09 "Hg10 mi
5:15 PM66 °FSunny.6 mph30%30.10 "Hg10 mi
4:55 PM68 °FSunny.5 mph30%30.10 "Hg10 mi
4:35 PM66 °FSunny.6 mph30%30.10 "Hg10 mi
4:15 PM68 °FSunny.12 mph28%30.10 "Hg10 mi
3:55 PM68 °FSunny.8 mph28%30.11 "Hg10 mi
3:35 PM66 °FSunny.8 mph30%30.12 "Hg10 mi
3:15 PM68 °FSunny.10 mph28%30.12 "Hg10 mi
2:55 PMN/ASunny.9 mphN/A30.13 "Hg10 mi
2:35 PM66 °FSunny.10 mph30%30.14 "Hg10 mi
2:15 PM66 °FSunny.15 mph30%30.15 "Hg10 mi
1:55 PM66 °FSunny.10 mph30%30.16 "Hg10 mi
1:35 PM64 °FSunny.5 mph32%30.17 "Hg10 mi
1:15 PM64 °FSunny.7 mph32%30.18 "Hg10 mi
12:55 PM64 °FSunny.10 mph32%30.19 "Hg10 mi
12:35 PM64 °FSunny.8 mph34%30.19 "Hg10 mi
12:15 PM63 °FSunny.6 mph37%30.20 "Hg10 mi
11:55 AM63 °FSunny.7 mph42%30.20 "Hg10 mi
11:35 AM61 °FSunny.9 mph45%30.22 "Hg10 mi
11:15 AM57 °FSunny.8 mph55%30.22 "Hg10 mi
10:55 AM55 °FSunny.8 mph59%30.23 "Hg10 mi
10:35 AM54 °FSunny.7 mph58%30.24 "Hg10 mi
10:15 AM52 °FSunny.6 mph62%30.24 "Hg10 mi
9:55 AM48 °FSunny.8 mph66%30.24 "Hg10 mi
9:35 AM46 °FSunny.9 mph71%30.24 "Hg10 mi
9:15 AM43 °FSunny.8 mph76%30.25 "Hg10 mi
8:55 AM41 °FSunny.9 mph81%30.25 "Hg10 mi
8:15 AM37 °FSunny.7 mph87%30.25 "Hg10 mi
7:55 AM36 °FSunny.8 mph93%30.25 "Hg10 mi
7:35 AM34 °FSunny.8 mph93%30.25 "Hg10 mi
7:15 AM30 °FClear.6 mph100%30.25 "Hg10 mi
Weather by CustomWeather, © 2014

See weather overviewHow to use our weather pages